Location: San Antonio
(29.4240°N, 98.4930°W)
Time: 08:25:04
(UTC-05:00)

BlueWalker 3 - Visible Passes

Search period start: 18 June 2024 00:00
Search period end: 28 June 2024 00:00
Orbit: 480 x 494 km, 53.2° (Epoch: 17 June)

Date Brightness Start Highest point End Pass type
(mag) Time Alt. Az. Time Alt. Az. Time Alt. Az.
18 Jun 1.8 21:23:31 10° SSW 21:27:13 61° SE 21:30:54 10° NE visible
18 Jun 5.3 23:03:55 10° WNW 23:05:38 13° NW 23:07:22 10° N visible
19 Jun 3.4 05:41:51 10° NNW 05:45:24 40° NE 05:48:57 10° ESE visible
19 Jun 1.9 20:57:52 10° SSW 21:01:32 55° SE 21:05:12 10° NE visible
19 Jun 5.3 22:37:57 10° WNW 22:39:55 14° NW 22:41:54 10° N visible
20 Jun 3.5 05:16:13 10° NNW 05:19:42 37° NE 05:23:11 10° ESE visible
20 Jun 5.2 22:12:02 10° WNW 22:14:12 15° NW 22:16:22 10° N visible
21 Jun 3.6 04:50:34 10° NNW 04:54:00 34° NE 04:57:25 10° ESE visible
21 Jun 5.1 21:46:07 10° WNW 21:48:27 16° NW 21:50:48 10° N visible
22 Jun 3.7 04:24:55 10° NNW 04:28:17 31° NE 04:31:37 10° ESE visible
22 Jun 3.3 06:03:36 10° W 06:06:13 18° SW 06:08:49 10° S visible
22 Jun 5.0 21:20:12 10° W 21:22:43 17° NW 21:25:13 10° N visible
23 Jun 3.8 03:59:16 10° NNW 04:02:33 28° NE 04:05:49 10° ESE visible
23 Jun 3.1 05:37:44 10° WNW 05:40:31 20° SW 05:43:17 10° S visible
24 Jun 4.6 03:33:36 10° NNW 03:34:41 16° N 03:34:41 16° N visible
